This is the latest recevied weather packets stored in our database for station/object S56IAR-13. If no packets are shown the sender has not sent any weather packets the latest 10 day(s).
| Time | Temp. | Humidity | Pressure | Rain* | Wind** | Luminosity | Snow |
|---|---|---|---|---|---|---|---|
| 1778100304 | 11.67° C | 99% | 958.3 hPa | 0 mm | - | 0 W/m² | - |
| 1778099403 | 12.22° C | 99% | 958 hPa | 0 mm | - | 0 W/m² | - |
| 1778098803 | 12.22° C | 99% | 958 hPa | 0 mm | - | 0 W/m² | - |
| 1778096706 | 12.22° C | 99% | 957.9 hPa | 2.03 mm | - | 0 W/m² | - |
| 1778094305 | 12.22° C | 98% | 957.8 hPa | 3.81 mm | - | 0 W/m² | - |
| 1778092504 | 13.33° C | 97% | 957.3 hPa | 3.56 mm | - | 0 W/m² | - |
| 1778091004 | 12.78° C | 98% | 957 hPa | 0 mm | - | 1 W/m² | - |
| 1778088905 | 12.78° C | 99% | 956.9 hPa | 0 mm | - | 8 W/m² | - |
| 1778088305 | 12.78° C | 98% | 957 hPa | 0 mm | - | 13 W/m² | - |
| 1778087404 | 13.33° C | 98% | 957.1 hPa | 0 mm | - | 18 W/m² | - |
| 1778083505 | 13.33° C | 98% | 957.4 hPa | 0 mm | - | 46 W/m² | - |
| 1778082903 | 13.33° C | 97% | 957.4 hPa | 0 mm | - | 46 W/m² | - |
| 1778080634 | 12.78° C | 97% | 957.6 hPa | 0 mm | - | 34 W/m² | - |
| 1778079004 | 12.78° C | 97% | 957.8 hPa | 0.76 mm | - | 59 W/m² | - |
| 1778078105 | 12.78° C | 96% | 957.7 hPa | 0.76 mm | - | 33 W/m² | - |
| 1778077803 | 12.22° C | 96% | 957.7 hPa | 0.76 mm | - | 42 W/m² | - |
| 1778076904 | 12.78° C | 96% | 957.9 hPa | 0.76 mm | - | 33 W/m² | - |
| 1778074933 | 12.78° C | 94% | 958.2 hPa | 0.25 mm | - | 110 W/m² | - |
| 1778072105 | 12.78° C | 95% | 958.3 hPa | 0 mm | - | 103 W/m² | - |
| 1778070903 | 12.78° C | 97% | 958.2 hPa | 0 mm | - | 70 W/m² | - |
| 1778070605 | 12.22° C | 96% | 958.2 hPa | 0 mm | - | 68 W/m² | - |
| 1778069105 | 12.22° C | 97% | 958.2 hPa | 0.76 mm | - | 43 W/m² | - |
| 1778067305 | 12.22° C | 96% | 958.6 hPa | 0.76 mm | - | 49 W/m² | - |
| 1778066233 | 12.78° C | 96% | 958.5 hPa | 0.25 mm | - | 131 W/m² | - |
| 1778065635 | 12.22° C | 95% | 958.6 hPa | 0 mm | - | 67 W/m² | - |
* Rain latest hour (hover to see other rain measurements)
** Current wind speed in m/s (hover to see current wind gust speed)